This is the latest recevied weather packets stored in our database for station/object W1SCW. If no packets are shown the sender has not sent any weather packets the latest 10 day(s).
| Time | Temp. | Humidity | Pressure | Rain* | Wind** | Luminosity | Snow |
|---|---|---|---|---|---|---|---|
| 1777665715 | 16.67° C | 99% | 1007.6 hPa | 4.32 mm | - | 36 W/m² | - |
| 1777665412 | 16.67° C | 99% | 1008.3 hPa | 8.38 mm | - | 23 W/m² | - |
| 1777665108 | 17.22° C | 99% | 1008.2 hPa | 7.11 mm | - | 42 W/m² | - |
| 1777664804 | 17.22° C | 99% | 1008.4 hPa | 1.27 mm | - | 30 W/m² | - |
| 1777664499 | 17.22° C | 99% | 1007.7 hPa | 0 mm | - | 43 W/m² | - |
| 1777664197 | 17.22° C | 99% | 1007.4 hPa | 0 mm | - | 51 W/m² | - |
| 1777663895 | 16.67° C | 99% | 1007.9 hPa | 0 mm | - | 67 W/m² | - |
| 1777663592 | 17.22° C | 99% | 1008.3 hPa | 0.51 mm | - | 80 W/m² | - |
| 1777663290 | 17.22° C | 99% | 1008 hPa | 0.51 mm | - | 73 W/m² | - |
| 1777662986 | 17.22° C | 99% | 1008 hPa | 1.27 mm | - | 70 W/m² | - |
| 1777662684 | 17.22° C | 99% | 1007.6 hPa | 2.29 mm | - | 92 W/m² | - |
| 1777662380 | 16.67° C | 99% | 1007.3 hPa | 1.78 mm | - | 91 W/m² | - |
| 1777662075 | 16.67° C | 99% | 1008.8 hPa | 2.29 mm | - | 48 W/m² | - |
| 1777661772 | 17.22° C | 99% | 1008.4 hPa | 3.05 mm | - | 78 W/m² | - |
| 1777661467 | 16.67° C | 99% | 1008.3 hPa | 3.05 mm | - | 145 W/m² | - |
| 1777661164 | 16.67° C | 99% | 1008.2 hPa | 2.29 mm | - | 83 W/m² | - |
| 1777660858 | 16.67° C | 99% | 1008.2 hPa | 4.83 mm | - | 35 W/m² | - |
| 1777660556 | 16.67° C | 99% | 1007.6 hPa | 13.21 mm | - | 40 W/m² | - |
| 1777660252 | 16.67° C | 99% | 1008 hPa | 11.43 mm | - | 36 W/m² | - |
| 1777659949 | 16.67° C | 99% | 1007.8 hPa | 3.56 mm | - | 38 W/m² | - |
| 1777659646 | 16.67° C | 99% | 1007.3 hPa | 1.78 mm | - | 32 W/m² | - |
| 1777659343 | 16.67° C | 99% | 1007.3 hPa | 1.78 mm | - | 35 W/m² | - |
| 1777659039 | 16.67° C | 99% | 1007 hPa | 1.78 mm | - | 28 W/m² | - |
| 1777658738 | 16.67° C | 99% | 1006.4 hPa | 5.33 mm | - | 30 W/m² | - |
| 1777658433 | 16.67° C | 99% | 1006.3 hPa | 6.6 mm | - | 34 W/m² | - |
* Rain latest hour (hover to see other rain measurements)
** Current wind speed in m/s (hover to see current wind gust speed)